sat.trackr.live / text

‹ back to catalog

ION SCV-011

NORAD 56957 · 2023-084AB

PAYLOAD ACTIVE UNKNOWN

§ Identity

Operator
Country
IT
Launch date
2023-06-12
Launch site
AFWTR
Launch vehicle
Mass (kg)
RCS (m²)

External: N2YO · Heavens-Above · Gunter

§ Orbital elements

Epoch: 2026-05-25T02:11:41.152128Z

Period
94.20 min
Inclination
98.1386°
Eccentricity
0.0008498
Mean motion
15.28582828 rev/d
Perigee alt
474.2 km
Apogee alt
485.9 km
Semi-major
6,858.2 km
B*
1.6971e-4
RAAN
330.2361°
Arg perigee
114.6284°
Mean anomaly
245.5840°
Rev number
16,228

§ Raw data

ION SCV-0111 56957U 23084AB  26145.09144852  .00004635  00000+0  16971-3 0  99942 56957  98.1386 330.2361 0008498 114.6284 245.5840 15.28582828162288

JSON: /api/v1/satellites/56957 · /tle

For live sub-satellite position, see the globe view (requires WebGL).

§ Visibility from observer

Set your observer location to see the next 7 days of passes ≥ 10°. The values pass through the URL so the page stays shareable.

No JS? Fill the form by hand. The geolocation button needs JavaScript.

§ Radio — SatNOGS DB

ModeDescriptionDownlinkUplink
FM Mode S 2.265 GHz
FSK AX.100 Mode 5 Mode U - FSK1k2 AX.100 401.415 MHz

2 transmitters · refreshed weekly from db.satnogs.org